EW7114 Weather Reports


time (UTC)temp
F
wind
direction
speed
knots
gust
knots
rain 1hr
in
rain 24hr
in
rain mn
in
humidity
%
barometer
mb
20260831110020 50 245 0.0 0.0 0.00 0.01 0.00 1 1009.9
20260831105522 51 245 0.0 0.0 0.00 0.01 0.00 1 1009.8
20260831105017 51 245 0.0 0.0 0.00 0.01 0.00 1 1009.7
20260831104519 51 245 0.0 0.0 0.00 0.01 0.00 1 1009.7
20260831104014 51 245 0.0 0.0 0.00 0.01 0.00 1 1009.7
20260831103512 52 245 0.0 0.0 0.00 0.01 0.00 1 1009.8
20260831103010 52 245 0.0 0.0 0.00 0.01 0.00 1 1009.7
20260831102509 52 245 0.0 0.0 0.00 0.01 0.00 1 1009.8
20260831102008 52 245 0.0 0.0 0.00 0.01 0.00 1 1009.8
20260831101512 52 245 0.0 0.0 0.00 0.01 0.00 1 1009.7
20260831101005 52 245 0.0 2.6 0.00 0.01 0.00 1 1009.6
20260831100506 51 245 0.0 3.5 0.00 0.01 0.00 1 1009.6
20260831100002 51 245 0.0 2.6 0.00 0.01 0.00 1 1009.5
20260831095501 52 245 0.0 0.0 0.00 0.01 0.00 1 1009.4
20260831095100 52 245 0.0 0.0 0.00 0.01 0.00 1 1009.4
20260831094558 53 245 0.0 0.0 0.00 0.01 0.00 1 1009.4
20260831094057 52 245 0.0 0.0 0.00 0.01 0.00 1 1009.4
20260831093558 52 245 0.0 0.0 0.00 0.01 0.00 1 1009.3
20260831093057 52 245 0.0 0.0 0.00 0.01 0.00 1 1009.2
20260831092551 51 245 0.0 0.0 0.00 0.01 0.00 1 1009.2
20260831092052 50 245 0.0 0.0 0.00 0.01 0.00 1 1009.2
20260831091548 49 245 0.0 1.7 0.00 0.01 0.00 1 1009.3
20260831091050 49 245 0.0 3.5 0.00 0.01 0.00 1 1009.1
20260831090545 50 245 1.7 3.5 0.00 0.01 0.00 1 1009.2
20260831090056 53 245 0.0 0.0 0.00 0.01 0.00 1 1009.1
20260831085543 53 245 0.0 0.0 0.00 0.01 0.00 1 1009.1
20260831085041 53 245 0.0 0.0 0.00 0.01 0.00 1 1009.1
20260831084547 53 245 0.0 0.0 0.00 0.01 0.00 1 1009.2
20260831084037 52 245 0.0 0.0 0.00 0.01 0.00 1 1009.2
20260831083536 52 245 0.0 0.0 0.00 0.01 0.00 1 1009.2
20260831083035 52 245 0.0 0.0 0.00 0.01 0.00 1 1009.3
20260831082533 52 245 0.0 0.0 0.00 0.01 0.00 1 1009.3
20260831082031 52 245 0.0 0.9 0.00 0.01 0.00 1 1009.3
20260831081530 52 245 0.0 0.9 0.00 0.01 0.00 1 1009.4
20260831081029 55 245 0.0 0.0 0.00 0.01 0.00 1 1009.5
20260831080508 56 245 0.0 0.0 0.00 0.01 0.00 1 1009.4
20260831080032 56 245 0.0 0.0 0.00 0.01 0.00 1 1009.5
20260831075524 56 245 0.0 0.0 0.00 0.02 0.00 1 1009.5
20260831075022 56 245 0.0 0.0 0.00 0.02 0.00 1 1009.5
20260831074525 55 245 0.0 0.0 0.00 0.02 0.00 1 1009.5
20260831074022 55 245 0.0 0.0 0.00 0.02 0.00 1 1009.6
20260831073522 54 245 0.0 0.0 0.00 0.02 0.00 1 1009.6
20260831073017 53 245 0.0 2.6 0.00 0.02 0.00 1 1009.6
20260831072516 52 245 0.0 3.5 0.00 0.02 0.00 1 1009.6
20260831072014 52 245 2.6 3.5 0.00 0.02 0.00 1 1009.5
20260831071513 53 285 0.0 0.0 0.00 0.02 0.00 1 1009.6
20260831071011 54 284 0.0 0.0 0.00 0.02 0.00 1 1009.6
20260831070511 54 285 0.0 0.0 0.00 0.02 0.00 1 1009.6
20260831070009 54 284 0.0 0.0 0.00 0.02 0.00 1 1009.6
20260831065510 54 284 0.0 0.0 0.00 0.02 0.00 1 1009.6
20260831065005 54 285 0.0 2.6 0.00 0.02 0.00 1 1009.6
20260831064504 54 285 0.9 2.6 0.00 0.02 0.00 1 1009.6
20260831064002 55 285 0.0 2.6 0.00 0.02 0.00 1 1009.4
20260831063501 56 150 0.0 0.0 0.00 0.02 0.00 1 1009.4
20260831063059 56 150 0.0 0.0 0.00 0.02 0.00 1 1009.3
20260831062558 56 150 0.0 0.0 0.00 0.02 0.00 1 1009.3
20260831062057 56 150 0.0 0.0 0.00 0.02 0.00 1 1009.3
20260831061605 55 150 0.0 0.0 0.00 0.02 0.00 1 1009.3
20260831061054 56 150 0.0 0.0 0.00 0.02 0.00 1 1009.4
20260831060553 56 150 0.0 2.6 0.00 0.02 0.00 1 1009.4
20260831060058 56 150 1.7 4.3 0.00 0.02 0.00 1 1009.3
20260831055549 56 150 3.5 4.3 0.00 0.02 0.02 1 1009.3
20260831055048 56 150 0.0 2.6 0.00 0.02 0.02 1 1009.2
20260831054548 57 150 1.7 3.5 0.00 0.02 0.02 1 1009.2
20260831054046 57 150 0.9 6.1 0.00 0.02 0.02 1 1009.3
20260831053545 57 150 4.3 7.0 0.00 0.02 0.02 1 1009.3
20260831053058 57 153 3.5 7.8 0.00 0.02 0.02 1 1009.2
20260831052542 57 137 5.2 7.8 0.00 0.02 0.02 1 1009.4
20260831052044 57 182 2.6 4.3 0.00 0.02 0.02 1 1009.1
20260831051543 56 182 0.0 0.9 0.00 0.02 0.02 1 1009.1
20260831051037 56 182 0.0 0.0 0.00 0.02 0.02 1 1009.1
20260831050536 56 182 0.0 2.6 0.00 0.02 0.02 1 1009.0
20260831050042 56 182 0.0 4.3 0.00 0.02 0.02 1 1008.9
20260831045535 57 182 2.6 4.3 0.00 0.08 0.02 1 1008.9
20260831045032 58 182 2.6 4.3 0.00 0.08 0.02 1 1008.7
20260831044530 60 182 2.6 4.3 0.00 0.08 0.02 1 1008.7
20260831044028 60 182 0.0 0.0 0.00 0.08 0.02 1 1008.7
20260831043527 61 182 0.0 0.9 0.00 0.08 0.02 1 1008.6
20260831043026 61 182 0.0 2.6 0.00 0.08 0.02 1 1008.7
20260831042526 61 182 0.0 2.6 0.00 0.08 0.02 1 1008.7
20260831042023 62 182 0.0 3.5 0.00 0.08 0.02 1 1008.5
20260831041522 62 182 0.9 3.5 0.00 0.08 0.02 1 1008.6
20260831041022 63 182 0.0 0.0 0.00 0.08 0.02 1 1008.4
20260831040518 63 182 0.0 0.0 0.00 0.08 0.02 1 1008.4
20260831040018 63 182 0.0 3.5 0.00 0.08 0.02 1 1008.3
20260831035516 63 182 1.7 3.5 0.00 0.11 0.02 1 1008.4
20260831035014 63 182 2.6 3.5 0.00 0.11 0.02 1 1008.3
20260831034514 63 182 1.7 3.5 0.00 0.11 0.02 1 1008.2
20260831034014 64 182 0.0 3.5 0.00 0.11 0.02 1 1008.2
20260831033514 63 182 0.0 3.5 0.00 0.11 0.02 1 1008.3
20260831033024 63 182 0.0 0.9 0.00 0.11 0.02 1 1008.2
20260831032514 63 182 0.0 0.0 0.00 0.11 0.02 1 1008.1
20260831032013 63 182 0.0 4.3 0.00 0.11 0.02 1 1008.0
20260831031515 63 182 1.7 8.7 0.00 0.11 0.02 1 1008.0
20260831031013 63 147 6.1 8.7 0.00 0.11 0.02 1 1007.9
20260831030511 63 288 0.0 1.7 0.00 0.11 0.02 1 1007.7
20260831030008 63 288 0.0 4.3 0.00 0.11 0.02 1 1007.5
20260831025508 64 288 2.6 4.3 0.00 0.11 0.02 1 1007.5
20260831025007 64 288 0.0 3.5 0.00 0.11 0.02 1 1007.3
20260831024507 64 288 0.0 2.6 0.00 0.11 0.02 1 1007.2
20260831024006 64 288 0.0 2.6 0.00 0.11 0.02 1 1007.1
20260831023504 65 288 1.7 3.5 0.00 0.11 0.02 1 1006.9
20260831023002 65 288 2.6 4.3 0.00 0.11 0.02 1 1006.8
20260831022502 65 288 2.6 4.3 0.00 0.11 0.02 3 1006.7
20260831022059 66 288 1.7 3.5 0.00 0.11 0.02 9 1006.7
20260831021559 66 303 2.6 5.2 0.00 0.11 0.02 19 1006.6
20260831021057 67 303 2.6 7.0 0.00 0.11 0.02 27 1006.4
20260831020556 68 303 5.2 7.0 0.00 0.11 0.02 35 1006.3
20260831020108 69 293 4.3 7.0 0.00 0.11 0.02 43 1006.2
20260831015552 70 304 3.5 7.0 0.00 0.12 0.02 46 1006.2
20260831015050 70 329 3.5 7.0 0.00 0.12 0.02 48 1006.1
20260831014548 71 313 3.5 8.7 0.00 0.12 0.02 50 1006.1
20260831014048 71 325 4.3 10.4 0.00 0.12 0.02 51 1006.1
20260831013546 72 305 6.1 9.6 0.00 0.12 0.02 51 1006.1
20260831013044 73 336 6.1 10.4 0.00 0.12 0.02 52 1006.1
20260831012543 73 321 6.1 10.4 0.00 0.12 0.02 52 1006.1
20260831012042 73 345 6.1 10.4 0.00 0.12 0.02 52 1006.2
20260831011544 74 6 5.2 11.3 0.00 0.12 0.02 52 1006.2
20260831011038 74 345 6.1 11.3 0.00 0.12 0.02 52 1006.2
20260831010538 74 355 7.0 11.3 0.00 0.12 0.02 52 1006.2
20260831010036 74 317 7.0 12.2 0.00 0.12 0.02 52 1006.3
20260831005534 75 334 8.7 13.0 0.00 0.23 0.02 52 1006.3
20260831005032 75 328 8.7 13.0 0.00 0.23 0.02 52 1006.2
20260831004531 75 355 9.6 13.0 0.00 0.23 0.02 52 1006.2
20260831004029 75 350 7.8 12.2 0.00 0.23 0.02 51 1006.2
20260831003529 75 328 6.1 13.0 0.00 0.23 0.02 52 1006.1
20260831003033 75 355 8.7 13.9 0.00 0.23 0.02 52 1006.1
20260831002524 76 335 7.8 13.9 0.00 0.23 0.02 52 1006.0
20260831002022 76 311 9.6 13.9 0.00 0.23 0.02 51 1006.1
20260831001521 76 336 7.8 13.0 0.00 0.23 0.02 52 1006.1
20260831001025 76 359 9.6 13.0 0.00 0.23 0.02 51 1006.1
20260831000518 77 328 8.7 12.2 0.00 0.23 0.02 51 1006.2
20260831000020 77 319 7.8 12.2 0.00 0.23 0.02 50 1006.1
20260830235516 77 345 7.0 12.2 0.00 0.23 0.02 49 1006.2
20260830235014 77 350 8.7 12.2 0.00 0.23 0.02 49 1006.3
20260830234531 77 302 7.8 14.8 0.00 0.23 0.02 50 1006.3
20260830234010 77 313 9.6 14.8 0.00 0.23 0.02 49 1006.3
20260830233509 77 321 5.2 12.2 0.00 0.23 0.02 50 1006.3
20260830233008 77 350 8.7 13.0 0.00 0.23 0.02 51 1006.3
20260830232506 77 337 9.6 13.0 0.00 0.23 0.02 51 1006.3
20260830232005 76 14 6.1 13.0 0.00 0.23 0.02 52 1006.3
20260830231507 75 13 8.7 13.0 0.00 0.23 0.02 52 1006.1
20260830231002 75 355 8.7 13.0 0.00 0.23 0.02 52 1006.2
20260830230600 76 14 7.8 13.0 0.00 0.23 0.02 51 1006.3
20260830230059 77 350 7.0 11.3 0.00 0.23 0.02 51 1006.4
20260830225558 78 315 7.8 14.8 0.00 0.24 0.02 51 1006.4
20260830225056 78 308 8.7 14.8 0.00 0.24 0.02 50 1006.5
20260830224555 78 322 9.6 14.8 0.00 0.24 0.02 51 1006.4
20260830224053 78 338 7.8 13.0 0.00 0.24 0.02 50 1006.4
20260830223552 77 355 6.1 13.0 0.00 0.24 0.02 51 1006.5
20260830223050 77 340 7.8 11.3 0.00 0.24 0.02 51 1006.5
20260830222551 77 318 6.1 10.4 0.00 0.24 0.02 51 1006.6
20260830222047 77 330 6.1 10.4 0.00 0.24 0.02 51 1006.7
20260830221548 77 307 6.1 12.2 0.00 0.24 0.02 50 1006.8
20260830221044 78 327 7.0 12.2 0.00 0.24 0.02 51 1006.8
20260830220543 77 285 5.2 12.2 0.00 0.24 0.02 50 1006.8
20260830220047 77 279 7.8 12.2 0.00 0.24 0.02 50 1006.7
20260830215540 77 318 7.0 14.8 0.00 0.26 0.02 50 1006.7
20260830215041 77 317 9.6 14.8 0.00 0.26 0.02 51 1006.8
20260830214537 77 309 7.0 13.0 0.00 0.26 0.02 51 1006.7
20260830214035 76 305 8.7 13.9 0.00 0.26 0.02 51 1007.0
20260830213536 76 355 7.0 13.9 0.00 0.26 0.02 50 1007.0
20260830213036 77 350 7.0 12.2 0.00 0.26 0.02 50 1007.0
20260830212531 76 350 6.1 12.2 0.00 0.26 0.02 50 1007.0
20260830212031 75 345 8.7 12.2 0.00 0.26 0.02 51 1006.9
20260830211529 75 345 7.8 13.0 0.00 0.26 0.02 51 1006.9
20260830211031 76 10 8.7 13.0 0.00 0.26 0.02 51 1006.9
20260830210527 75 345 8.7 16.5 0.00 0.26 0.02 51 1007.0
20260830210024 76 20 13.0 16.5 0.00 0.26 0.02 50 1007.1
20260830205525 78 338 10.4 16.5 0.00 0.26 0.02 50 1007.3
20260830205021 79 336 5.2 16.5 0.00 0.26 0.02 45 1007.3
20260830204524 80 197 8.7 13.9 0.00 0.26 0.02 43 1007.3
20260830204018 79 209 9.6 13.9 0.00 0.26 0.02 42 1007.5
20260830203517 78 245 7.0 13.0 0.00 0.26 0.02 44 1007.5
20260830203015 78 234 3.5 16.5 0.00 0.26 0.02 44 1007.6
20260830202514 79 232 11.3 16.5 0.00 0.26 0.02 44 1007.7
20260830202013 78 207 2.6 12.2 0.00 0.26 0.02 46 1007.7
20260830201512 78 205 7.0 12.2 0.00 0.26 0.02 45 1007.9
20260830201009 77 129 4.3 10.4 0.00 0.26 0.02 50 1007.9
20260830200508 77 131 5.2 8.7 0.00 0.26 0.02 49 1008.0
20260830200007 77 203 2.6 8.7 0.00 0.26 0.02 49 1008.0
20260830195506 76 207 0.9 8.7 0.00 0.26 0.02 50 1008.1
20260830195003 76 120 4.3 8.7 0.00 0.26 0.02 50 1008.1
20260830194502 75 88 6.1 9.6 0.00 0.26 0.02 49 1008.1
20260830194102 75 101 3.5 11.3 0.00 0.26 0.02 50 1008.3
20260830193558 75 145 6.1 11.3 0.00 0.26 0.02 50 1008.4
20260830193057 76 98 7.0 10.4 0.00 0.26 0.02 50 1008.5
20260830192555 76 123 6.1 9.6 0.00 0.26 0.02 50 1008.6
20260830192054 76 172 5.2 10.4 0.00 0.26 0.02 50 1008.8
20260830191559 74 151 6.1 10.4 0.00 0.26 0.02 50 1008.8
20260830191054 74 82 6.1 12.2 0.00 0.26 0.02 50 1008.9
20260830190552 75 118 7.8 12.2 0.00 0.26 0.02 50 1009.0
20260830190100 75 110 6.1 12.2 0.00 0.26 0.02 48 1009.1
20260830185548 74 162 7.0 12.2 0.00 0.26 0.02 48 1009.2
20260830185046 74 116 7.8 12.2 0.00 0.26 0.02 49 1009.3
20260830184543 74 150 7.0 12.2 0.00 0.26 0.02 47 1009.3
20260830184042 73 106 8.7 12.2 0.00 0.26 0.02 40 1009.6
20260830183540 73 116 7.8 12.2 0.00 0.26 0.02 42 1009.7
20260830183041 73 147 8.7 11.3 0.00 0.26 0.02 42 1009.8
20260830182542 73 122 8.7 12.2 0.00 0.26 0.02 30 1009.9
20260830182039 73 145 7.8 12.2 0.00 0.26 0.02 19 1010.0
20260830181535 72 132 7.0 11.3 0.00 0.26 0.02 7 1010.0
20260830181034 72 116 8.7 12.2 0.00 0.26 0.02 1 1010.2
20260830180535 71 155 7.0 12.2 0.00 0.26 0.02 1 1010.2
20260830180031 71 130 7.8 13.0 0.00 0.26 0.02 1 1010.3
20260830175529 71 120 7.0 10.4 0.00 0.26 0.02 1 1010.2
20260830175028 71 128 7.0 10.4 0.00 0.26 0.02 1 1010.3
20260830174528 70 130 7.0 10.4 0.00 0.26 0.02 1 1010.2
20260830174025 70 139 7.0 10.4 0.00 0.26 0.02 1 1010.3
20260830173525 70 113 5.2 10.4 0.00 0.26 0.02 1 1010.4
20260830173021 70 144 6.1 10.4 0.00 0.26 0.02 1 1010.4
20260830172520 69 141 7.0 13.0 0.00 0.26 0.02 1 1010.4
20260830172018 69 144 7.0 13.0 0.00 0.26 0.02 1 1010.4
20260830171517 69 151 6.1 10.4 0.00 0.26 0.02 1 1010.4
20260830171016 69 133 7.0 10.4 0.00 0.26 0.02 1 1010.4
20260830170514 68 121 7.0 10.4 0.00 0.26 0.02 1 1010.4
20260830170032 68 113 6.1 10.4 0.00 0.26 0.02 1 1010.4
20260830165511 68 157 7.0 10.4 0.00 0.45 0.02 1 1010.4
20260830165010 68 147 7.0 10.4 0.00 0.45 0.02 1 1010.6
20260830164508 67 157 8.7 13.0 0.00 0.45 0.02 1 1010.4
20260830164008 67 168 6.1 13.0 0.00 0.45 0.02 1 1010.4
20260830163505 67 169 7.8 13.0 0.00 0.45 0.02 1 1010.3
20260830163006 67 147 7.8 10.4 0.00 0.45 0.02 1 1010.3
20260830162502 66 163 7.0 10.4 0.00 0.45 0.02 1 1010.3
20260830162002 66 140 5.2 8.7 0.00 0.45 0.02 1 1010.3
20260830161608 65 185 4.3 9.6 0.00 0.45 0.02 1 1010.2
20260830161057 64 158 5.2 9.6 0.00 0.45 0.02 1 1010.2
20260830160556 64 153 5.2 7.0 0.00 0.45 0.02 1 1010.2
20260830160105 63 160 3.5 6.1 0.00 0.45 0.02 1 1010.3
20260830155554 63 194 2.6 7.0 0.00 0.45 0.02 1 1010.3
20260830155052 62 174 3.5 7.8 0.00 0.45 0.02 1 1010.2
20260830154551 62 173 4.3 7.8 0.00 0.45 0.02 1 1010.1
20260830154049 61 158 5.2 7.8 0.00 0.45 0.02 1 1010.1
20260830153547 61 149 5.2 7.8 0.00 0.45 0.02 1 1010.2
20260830153046 61 143 4.3 7.0 0.00 0.45 0.02 1 1010.3
20260830152544 61 125 2.6 7.0 0.00 0.45 0.02 1 1010.3
20260830152042 61 163 2.6 7.0 0.00 0.45 0.02 1 1010.3
20260830151552 60 147 5.2 7.0 0.00 0.45 0.02 1 1010.2
20260830151040 60 143 5.2 7.8 0.00 0.45 0.02 1 1010.1
20260830150539 60 120 6.1 7.8 0.00 0.45 0.02 1 1010.0
20260830150038 59 127 4.3 7.0 0.00 0.45 0.02 1 1010.0
20260830145535 59 117 3.5 4.3 0.00 0.45 0.02 1 1010.0
20260830145036 59 147 3.5 5.2 0.00 0.45 0.02 1 1010.0
20260830144545 59 147 3.5 5.2 0.00 0.45 0.02 1 1010.0
20260830144031 59 147 0.0 1.7 0.01 0.45 0.02 1 1010.0
20260830143530 58 147 0.0 2.6 0.01 0.45 0.02 1 1010.0
20260830143030 58 147 0.9 6.1 0.01 0.45 0.02 1 1009.9
20260830142526 58 147 2.6 6.1 0.01 0.45 0.02 1 1009.8
20260830142026 58 150 3.5 6.1 0.01 0.45 0.02 1 1009.9
20260830141524 57 125 2.6 4.3 0.01 0.45 0.02 1 1009.9
20260830141022 56 163 1.7 2.6 0.01 0.45 0.02 1 1009.9
20260830140521 55 163 0.0 1.7 0.01 0.45 0.02 1 1010.0
20260830140026 55 163 0.0 3.5 0.01 0.45 0.02 1 1010.0
20260830135521 55 163 1.7 3.5 0.01 0.45 0.02 1 1009.9
20260830135017 55 163 2.6 3.5 0.01 0.45 0.02 1 1009.8
20260830134515 55 107 1.7 2.6 0.01 0.45 0.02 1 1009.7
20260830134013 55 107 0.0 2.6 0.00 0.44 0.01 1 1009.8
20260830133512 56 107 0.0 3.5 0.00 0.44 0.01 1 1009.8
20260830133023 56 107 1.7 3.5 0.00 0.44 0.01 1 1009.6
20260830132508 56 107 0.9 3.5 0.00 0.44 0.01 1 1009.6
20260830132008 56 107 1.7 3.5 0.00 0.44 0.01 1 1009.6
20260830131507 56 107 0.9 3.5 0.00 0.44 0.01 1 1009.6
20260830131007 56 107 1.7 6.1 0.00 0.44 0.01 1 1009.4
20260830130505 56 107 1.7 6.1 0.00 0.44 0.01 1 1009.3
20260830130003 56 111 3.5 6.1 0.00 0.44 0.01 1 1009.3
20260830125503 56 76 3.5 5.2 0.00 0.44 0.01 1 1009.2
20260830125100 56 256 0.9 3.5 0.00 0.44 0.01 1 1009.2
20260830124558 55 256 1.7 3.5 0.00 0.44 0.01 1 1009.1
20260830124057 56 256 0.0 2.6 0.00 0.44 0.01 1 1009.0
20260830123556 56 256 0.9 2.6 0.00 0.44 0.01 1 1008.8
20260830123054 56 256 0.0 0.0 0.00 0.44 0.01 1 1008.8
20260830122553 56 256 0.0 5.2 0.00 0.44 0.01 1 1008.8
20260830122050 56 256 0.0 6.1 0.00 0.44 0.01 1 1009.0
20260830121550 56 266 4.3 7.0 0.00 0.44 0.01 1 1009.1
20260830121047 56 277 2.6 7.0 0.00 0.44 0.01 1 1009.1
20260830120546 56 249 5.2 7.0 0.00 0.44 0.01 1 1009.4
20260830120045 56 283 2.6 7.8 0.00 0.44 0.01 1 1008.9
20260830115544 57 285 4.3 7.8 0.00 0.44 0.01 1 1009.0
20260830115042 58 252 5.2 7.0 0.00 0.44 0.01 1 1009.0
20260830114544 59 80 0.9 5.2 0.00 0.44 0.01 1 1008.9
20260830114039 59 80 1.7 5.2 0.00 0.44 0.01 1 1008.4
20260830113537 59 57 0.9 6.1 0.00 0.44 0.01 1 1008.6
20260830113036 59 57 1.7 9.6 0.00 0.44 0.01 1 1008.7
20260830112535 59 65 4.3 9.6 0.00 0.44 0.01 1 1008.7
20260830112033 58 71 5.2 7.8 0.00 0.44 0.01 1 1008.7
20260830111533 58 87 0.0 3.5 0.00 0.44 0.01 1 1008.9
20260830111030 58 164 1.7 3.5 0.00 0.44 0.01 1 1008.8
20260830110529 59 164 1.7 3.5 0.00 0.44 0.01 1 1008.8